Regional Weather Roundup
Issued by NWS

Home | Current Version | Previous Version | Text Only | Print | Product List | Glossary Off
Versions: 1 2 3 4 5 6 7 8 9 10 11 12 13 14 15 16 17 18 19 20 21 22 23 24 25 26 27

000
ASUS45 KSLC 170210
RWRUT

UTAH REGIONAL WEATHER ROUNDUP
NATIONAL WEATHER SERVICE SALT LAKE CITY UT
800 PM MDT WED APR 16 2014

UTZ001>011-023>025-170300-

NORTHERN UTAH

CITY           SKY/WX    TMP DP  RH WIND       PRES   REMARKS
HILL AFB       CLEAR     52  13  21 SW6       29.99R
LOGAN          CLEAR     52  18  26 SW5       29.97R
OGDEN          CLEAR     51  17  26 W6        29.98S
PROVO AIRPORT  PTCLDY    52  18  25 NW7       29.99S
SALT LAKE CITY PTCLDY    51  15  23 W6        29.99S
VERNAL         PTCLDY    51  19  28 N8        29.94R
WENDOVER       CLEAR     57  16  19 E8        29.96S
HEBER CITY     CLEAR     46  18  31 SW10      29.98R
WEST JORDAN    CLEAR     48  18  29 NW6       30.00S

$$

UTZ012>022-026-027-170300-

SOUTHERN UTAH

CITY           SKY/WX    TMP DP  RH WIND       PRES   REMARKS
BRYCE CANYON   CLEAR     46  21  37 NW13      30.02R
CEDAR CITY     CLEAR     56  22  26 N7        29.94R
MILFORD        CLEAR     57  21  24 NE8       29.95R
MOAB/CYNLANDS  CLEAR     57  18  21 W6        29.89R
PRICE          CLEAR     52  17  25 NW13      29.95R
ST GEORGE      CLEAR     75  27  16 NE13      29.80S
KANAB            N/A     63  27  25 NW6       29.94R

$$

REGIONAL REPORTS     COLORADO/ARIZONA

CITY           SKY/WX    TMP DP  RH WIND       PRES   REMARKS
CRAIG, CO      PTCLDY    39  18  42 S6        29.97R WCI  35
GRAND JUNCTION PTCLDY    53  19  26 CALM      29.91R
RIFLE          PTCLDY    50  17  27 W3        29.92R
MONTROSE       MOCLDY    52  22  30 W3        29.97R
CORTEZ         CLOUDY    51  25  36 N7        29.94R
PAGE, AZ       PTCLDY    67  27  22 N6        29.87R
GRAND CANYON   PTCLDY    58  18  21 N7        29.97R
KINGMAN        CLEAR     76  12   8 N10       29.80R
FLAGSTAFF      MOCLDY    60  10  14 W6        29.97R

$$

REGIONAL REPORTS    NEVADA/IDAHO/WYOMING

CITY           SKY/WX    TMP DP  RH WIND       PRES   REMARKS
LAS VEGAS, NV  PTCLDY    83  18   9 SE7       29.68R
ELY            CLEAR     53  25  33 N9        29.99R
ELKO           PTCLDY    56  27  32 W3        29.97S
POCATELLO, ID  PTCLDY    51  12  21 SW10      29.98S
BURLEY         CLEAR     52  16  24 W8        29.96F
EVANSTON, WY   MOCLDY    42  12  29 W10       30.01S
ROCK SPRINGS   PTCLDY    43   6  21 NW10      29.97R

$$



USA.gov is the U.S. government's official web portal to all federal, state and local government web resources and services.